Location: Ellingshausen
(50.5460°N, 10.4723°E)
Time: 17:59:41
(UTC+00:00)

CZ-2C R/B - Visible Passes

Search period start: 11 April 2026 00:00
Search period end: 21 April 2026 00:00
Orbit: 663 x 772 km, 98.5° (Epoch: 11 April)

Date Brightness Start Highest point End Pass type
(mag) Time Alt. Az. Time Alt. Az. Time Alt. Az.
11 Apr 5.1 02:20:06 10° NE 02:23:11 16° E 02:26:12 10° SE visible
11 Apr 2.5 03:56:47 10° NNE 04:01:52 81° WNW 04:06:46 10° SSW visible
12 Apr 3.8 03:06:31 10° NNE 03:11:14 39° E 03:15:47 10° SSE visible
13 Apr 5.1 02:17:20 10° NE 02:20:11 15° E 02:22:57 10° ESE visible
14 Apr 3.9 03:03:37 10° NNE 03:08:15 36° E 03:12:43 10° SSE visible
15 Apr 5.1 02:14:36 10° NE 02:17:10 14° E 02:19:40 10° ESE visible
16 Apr 4.1 03:00:43 10° NNE 03:05:15 34° E 03:09:38 10° SSE visible
17 Apr 5.2 02:11:54 10° ENE 02:14:08 13° E 02:16:21 10° ESE visible
18 Apr 4.2 02:57:49 10° NNE 03:02:15 32° E 03:06:31 10° SSE visible
19 Apr 5.2 02:09:16 10° ENE 02:11:07 12° E 02:12:56 10° ESE visible
20 Apr 4.3 02:54:57 10° NNE 02:59:15 30° E 03:03:25 10° SSE visible
